Time,TemperatureF,DewpointF,PressureIn,WindDirection,WindDirectionDegrees,WindSpeedMPH,WindSpeedGustMPH,Humidity,HourlyPrecipIn,Conditions,Clouds,dailyrainin,SoftwareType,DateUTC
2013-04-09 00:04:00,39.0,35.2,30.11,South,180,3.0,4.0,86,0.00,,,0.00,Weather View 32 v70,2013-04-09 04:04:00,
2013-04-09 00:09:00,38.0,34.2,30.10,South,180,1.0,4.0,86,0.00,,,0.00,Weather View 32 v70,2013-04-09 04:09:00,
2013-04-09 00:20:00,38.0,34.5,30.10,SW,225,0.0,4.0,87,0.00,,,0.00,Weather View 32 v70,2013-04-09 04:20:00,
2013-04-09 00:29:00,39.0,35.7,30.10,SE,135,0.0,8.0,88,0.00,,,0.00,Weather View 32 v70,2013-04-09 04:29:00,
2013-04-09 00:34:00,40.0,36.7,30.10,SE,135,1.0,8.0,88,0.00,,,0.00,Weather View 32 v70,2013-04-09 04:34:00,
2013-04-09 00:42:00,40.0,36.1,30.09,SSE,158,2.0,8.0,86,0.00,,,0.00,Weather View 32 v70,2013-04-09 04:42:00,
2013-04-09 00:49:00,39.0,35.5,30.09,SE,135,1.0,8.0,87,0.00,,,0.00,Weather View 32 v70,2013-04-09 04:49:00,
2013-04-09 00:55:00,39.0,35.7,30.09,SSE,158,2.0,8.0,88,0.00,,,0.00,Weather View 32 v70,2013-04-09 04:55:00,
2013-04-09 01:04:00,38.0,35.0,30.08,South,180,1.0,8.0,89,0.00,,,0.00,Weather View 32 v70,2013-04-09 05:04:00,
2013-04-09 01:09:00,38.0,35.0,30.08,SSE,158,1.0,8.0,89,0.00,,,0.00,Weather View 32 v70,2013-04-09 05:09:00,
2013-04-09 01:15:00,38.0,35.3,30.07,SE,135,2.0,8.0,90,0.00,,,0.00,Weather View 32 v70,2013-04-09 05:15:00,
2013-04-09 01:24:00,38.0,35.3,30.07,SSE,158,2.0,8.0,90,0.00,,,0.00,Weather View 32 v70,2013-04-09 05:24:00,
2013-04-09 01:29:00,38.0,35.3,30.07,SSW,202,1.0,8.0,90,0.00,,,0.00,Weather View 32 v70,2013-04-09 05:29:00,
2013-04-09 01:35:00,38.0,35.6,30.07,WSW,248,0.0,6.0,91,0.00,,,0.00,Weather View 32 v70,2013-04-09 05:35:00,
2013-04-09 01:40:00,38.0,35.6,30.07,West,270,3.0,6.0,91,0.00,,,0.00,Weather View 32 v70,2013-04-09 05:40:00,
2013-04-09 01:50:00,39.0,36.6,30.06,SE,135,0.0,6.0,91,0.00,,,0.00,Weather View 32 v70,2013-04-09 05:50:00,
2013-04-09 01:59:00,39.0,36.3,30.05,SSE,158,1.0,6.0,90,0.00,,,0.00,Weather View 32 v70,2013-04-09 05:59:00,
2013-04-09 02:05:00,39.0,36.3,30.05,SSE,158,1.0,6.0,90,0.00,,,0.00,Weather View 32 v70,2013-04-09 06:05:00,
2013-04-09 02:10:00,39.0,36.6,30.05,SSE,158,0.0,6.0,91,0.00,,,0.00,Weather View 32 v70,2013-04-09 06:10:00,
2013-04-09 02:19:00,39.0,37.4,30.05,South,180,1.0,6.0,94,0.00,,,0.00,Weather View 32 v70,2013-04-09 06:19:00,
2013-04-09 02:25:00,40.0,39.0,30.04,SSE,158,2.0,6.0,96,0.00,,,0.00,Weather View 32 v70,2013-04-09 06:25:00,
2013-04-09 02:34:00,39.0,38.0,30.04,SSE,158,1.0,6.0,96,0.01,,,0.01,Weather View 32 v70,2013-04-09 06:34:00,
2013-04-09 02:43:00,39.0,38.0,30.03,SSW,202,0.0,6.0,96,0.01,,,0.01,Weather View 32 v70,2013-04-09 06:43:00,
2013-04-09 02:49:00,39.0,38.2,30.02,South,180,0.0,5.0,97,0.01,,,0.01,Weather View 32 v70,2013-04-09 06:49:00,
2013-04-09 02:55:00,39.0,38.5,30.02,SE,135,0.0,5.0,98,0.01,,,0.01,Weather View 32 v70,2013-04-09 06:55:00,
2013-04-09 03:04:00,39.0,38.7,30.02,WSW,248,0.0,5.0,99,0.01,,,0.01,Weather View 32 v70,2013-04-09 07:04:00,
2013-04-09 03:15:00,39.0,39.0,30.01,WSW,248,0.0,5.0,100,0.01,,,0.01,Weather View 32 v70,2013-04-09 07:15:00,
2013-04-09 03:24:00,39.0,39.0,30.03,WNW,292,1.0,5.0,100,0.01,,,0.01,Weather View 32 v70,2013-04-09 07:24:00,
2013-04-09 03:35:00,40.0,40.0,30.05,WSW,248,5.0,5.0,100,0.00,,,0.01,Weather View 32 v70,2013-04-09 07:35:00,
2013-04-09 03:44:00,40.0,40.0,30.04,SE,135,0.0,5.0,100,0.01,,,0.02,Weather View 32 v70,2013-04-09 07:44:00,
2013-04-09 03:49:00,40.0,40.0,30.04,West,270,0.0,5.0,100,0.03,,,0.04,Weather View 32 v70,2013-04-09 07:49:00,
2013-04-09 03:59:00,40.0,40.0,30.03,SW,225,0.0,5.0,100,0.07,,,0.08,Weather View 32 v70,2013-04-09 07:59:00,
2013-04-09 04:05:00,39.0,39.0,30.02,SSW,202,0.0,5.0,100,0.09,,,0.10,Weather View 32 v70,2013-04-09 08:05:00,
2013-04-09 04:10:00,39.0,39.0,30.02,SE,135,4.0,5.0,100,0.10,,,0.11,Weather View 32 v70,2013-04-09 08:10:00,
2013-04-09 04:20:00,39.0,39.0,30.01,SW,225,2.0,6.0,100,0.12,,,0.13,Weather View 32 v70,2013-04-09 08:20:00,
2013-04-09 04:29:00,40.0,40.0,30.01,South,180,1.0,6.0,100,0.18,,,0.19,Weather View 32 v70,2013-04-09 08:29:00,
2013-04-09 04:39:00,39.0,39.0,30.00,SSE,158,1.0,6.0,100,0.24,,,0.25,Weather View 32 v70,2013-04-09 08:39:00,
2013-04-09 04:45:00,39.0,39.0,29.98,WSW,248,0.0,6.0,100,0.26,,,0.28,Weather View 32 v70,2013-04-09 08:45:00,
2013-04-09 04:54:00,39.0,39.0,30.00,West,270,1.0,6.0,100,0.26,,,0.32,Weather View 32 v70,2013-04-09 08:54:00,
2013-04-09 05:00:00,39.0,39.0,30.00,WNW,292,0.0,6.0,100,0.25,,,0.33,Weather View 32 v70,2013-04-09 09:00:00,
2013-04-09 05:09:00,40.0,40.0,29.98,SW,225,3.0,6.0,100,0.26,,,0.37,Weather View 32 v70,2013-04-09 09:09:00,
2013-04-09 05:20:00,39.0,39.0,29.99,SE,135,0.0,7.0,100,0.26,,,0.39,Weather View 32 v70,2013-04-09 09:20:00,
2013-04-09 05:30:00,39.0,39.0,29.98,SSE,158,1.0,7.0,100,0.21,,,0.40,Weather View 32 v70,2013-04-09 09:30:00,
2013-04-09 05:39:00,39.0,39.0,29.98,South,180,1.0,7.0,100,0.16,,,0.41,Weather View 32 v70,2013-04-09 09:39:00,
2013-04-09 05:44:00,39.0,39.0,29.98,SSW,202,1.0,7.0,100,0.13,,,0.41,Weather View 32 v70,2013-04-09 09:44:00,
2013-04-09 05:49:00,39.0,39.0,29.98,SW,225,1.0,7.0,100,0.11,,,0.41,Weather View 32 v70,2013-04-09 09:49:00,
2013-04-09 05:59:00,40.0,40.0,29.97,SW,225,0.0,7.0,100,0.08,,,0.41,Weather View 32 v70,2013-04-09 09:59:00,
2013-04-09 06:05:00,40.0,40.0,29.97,WNW,292,0.0,7.0,100,0.07,,,0.41,Weather View 32 v70,2013-04-09 10:05:00,
2013-04-09 06:14:00,40.0,40.0,29.97,WNW,292,0.0,3.0,100,0.03,,,0.41,Weather View 32 v70,2013-04-09 10:14:00,
2013-04-09 06:24:00,40.0,40.0,29.97,SW,225,1.0,3.0,100,0.01,,,0.41,Weather View 32 v70,2013-04-09 10:24:00,
2013-04-09 06:30:00,40.0,40.0,29.97,West,270,1.0,3.0,100,0.01,,,0.41,Weather View 32 v70,2013-04-09 10:30:00,
2013-04-09 06:40:00,40.0,40.0,29.97,WNW,292,0.0,3.0,100,0.00,,,0.41,Weather View 32 v70,2013-04-09 10:40:00,
2013-04-09 06:50:00,40.0,40.0,29.97,West,270,1.0,3.0,100,0.00,,,0.41,Weather View 32 v70,2013-04-09 10:50:00,
2013-04-09 06:59:00,40.0,40.0,29.96,SW,225,0.0,3.0,100,0.00,,,0.41,Weather View 32 v70,2013-04-09 10:59:00,
2013-04-09 07:05:00,40.0,40.0,29.97,West,270,0.0,3.0,100,0.00,,,0.41,Weather View 32 v70,2013-04-09 11:05:00,
2013-04-09 07:10:00,40.0,40.0,29.96,WNW,292,1.0,3.0,100,0.00,,,0.41,Weather View 32 v70,2013-04-09 11:10:00,
2013-04-09 07:19:00,40.0,40.0,29.97,SSW,202,1.0,3.0,100,0.00,,,0.41,Weather View 32 v70,2013-04-09 11:19:00,
2013-04-09 07:24:00,40.0,40.0,29.96,West,270,0.0,3.0,100,0.00,,,0.41,Weather View 32 v70,2013-04-09 11:24:00,
2013-04-09 07:35:00,40.0,40.0,29.97,WSW,248,1.0,2.0,100,0.00,,,0.41,Weather View 32 v70,2013-04-09 11:35:00,
2013-04-09 07:44:00,40.0,40.0,29.96,SE,135,0.0,2.0,100,0.00,,,0.41,Weather View 32 v70,2013-04-09 11:44:00,
2013-04-09 07:50:00,40.0,40.0,29.96,SW,225,0.0,2.0,100,0.00,,,0.41,Weather View 32 v70,2013-04-09 11:50:00,
2013-04-09 07:55:00,40.0,40.0,29.96,WNW,292,1.0,2.0,100,0.00,,,0.41,Weather View 32 v70,2013-04-09 11:55:00,
2013-04-09 08:04:00,40.0,40.0,29.96,WSW,248,1.0,3.0,100,0.00,,,0.41,Weather View 32 v70,2013-04-09 12:04:00,
2013-04-09 08:14:00,40.0,40.0,29.94,WNW,292,0.0,3.0,100,0.00,,,0.41,Weather View 32 v70,2013-04-09 12:14:00,
2013-04-09 08:20:00,40.0,40.0,29.94,West,270,1.0,3.0,100,0.00,,,0.41,Weather View 32 v70,2013-04-09 12:20:00,
2013-04-09 08:30:00,40.0,40.0,29.93,South,180,1.0,3.0,100,0.00,,,0.41,Weather View 32 v70,2013-04-09 12:30:00,
2013-04-09 08:39:00,40.0,40.0,29.94,WSW,248,1.0,3.0,100,0.00,,,0.41,Weather View 32 v70,2013-04-09 12:39:00,
2013-04-09 08:45:00,40.0,40.0,29.94,WSW,248,2.0,3.0,100,0.00,,,0.41,Weather View 32 v70,2013-04-09 12:45:00,
2013-04-09 08:50:00,40.0,40.0,29.94,SSW,202,0.0,3.0,100,0.00,,,0.41,Weather View 32 v70,2013-04-09 12:50:00,
2013-04-09 09:04:00,40.0,40.0,29.93,WSW,248,1.0,3.0,100,0.00,,,0.41,Weather View 32 v70,2013-04-09 13:04:00,
2013-04-09 09:14:00,40.0,40.0,29.93,West,270,1.0,3.0,100,0.00,,,0.41,Weather View 32 v70,2013-04-09 13:14:00,
2013-04-09 09:20:00,40.0,40.0,29.94,WNW,292,1.0,3.0,100,0.00,,,0.41,Weather View 32 v70,2013-04-09 13:20:00,
2013-04-09 09:29:00,40.0,40.0,29.95,SSE,158,1.0,3.0,100,0.00,,,0.41,Weather View 32 v70,2013-04-09 13:29:00,
2013-04-09 09:39:00,40.0,40.0,29.93,SSW,202,0.0,3.0,100,0.00,,,0.41,Weather View 32 v70,2013-04-09 13:39:00,
2013-04-09 09:45:00,40.0,40.0,29.92,SE,135,2.0,3.0,100,0.00,,,0.41,Weather View 32 v70,2013-04-09 13:45:00,
2013-04-09 09:55:00,39.0,39.0,29.93,West,270,0.0,3.0,100,0.00,,,0.41,Weather View 32 v70,2013-04-09 13:55:00,
2013-04-09 10:04:00,40.0,40.0,29.94,South,180,0.0,3.0,100,0.00,,,0.41,Weather View 32 v70,2013-04-09 14:04:00,
2013-04-09 10:14:00,40.0,40.0,29.93,WNW,292,3.0,3.0,100,0.00,,,0.41,Weather View 32 v70,2013-04-09 14:14:00,
2013-04-09 10:20:00,40.0,40.0,29.94,WSW,248,3.0,3.0,100,0.00,,,0.41,Weather View 32 v70,2013-04-09 14:20:00,
2013-04-09 10:25:00,40.0,40.0,29.94,WNW,292,1.0,3.0,100,0.00,,,0.41,Weather View 32 v70,2013-04-09 14:25:00,
2013-04-09 10:34:00,41.0,41.0,29.94,SSW,202,0.0,3.0,100,0.00,,,0.41,Weather View 32 v70,2013-04-09 14:34:00,
2013-04-09 10:40:00,41.0,41.0,29.94,SSE,158,3.0,3.0,100,0.00,,,0.41,Weather View 32 v70,2013-04-09 14:40:00,
2013-04-09 10:47:00,41.0,41.0,29.94,SSE,158,1.0,3.0,100,0.00,,,0.41,Weather View 32 v70,2013-04-09 14:47:00,
2013-04-09 10:54:00,41.0,41.0,29.94,West,270,0.0,3.0,100,0.00,,,0.41,Weather View 32 v70,2013-04-09 14:54:00,
2013-04-09 10:59:00,41.0,41.0,29.94,WNW,292,0.0,3.0,100,0.00,,,0.41,Weather View 32 v70,2013-04-09 14:59:00,
2013-04-09 11:04:00,41.0,41.0,29.94,South,180,1.0,3.0,100,0.00,,,0.41,Weather View 32 v70,2013-04-09 15:04:00,
2013-04-09 11:14:00,41.0,41.0,29.93,South,180,2.0,3.0,100,0.00,,,0.41,Weather View 32 v70,2013-04-09 15:14:00,
2013-04-09 11:20:00,41.0,41.0,29.93,South,180,1.0,3.0,100,0.00,,,0.41,Weather View 32 v70,2013-04-09 15:20:00,
2013-04-09 11:25:00,41.0,41.0,29.93,SE,135,1.0,3.0,100,0.00,,,0.41,Weather View 32 v70,2013-04-09 15:25:00,
2013-04-09 11:30:00,41.0,41.0,29.93,SSE,158,1.0,3.0,100,0.00,,,0.41,Weather View 32 v70,2013-04-09 15:30:00,
2013-04-09 11:39:00,41.0,41.0,29.93,SSE,158,3.0,4.0,100,0.00,,,0.41,Weather View 32 v70,2013-04-09 15:39:00,
2013-04-09 11:44:00,41.0,41.0,29.94,SSE,158,3.0,4.0,100,0.00,,,0.41,Weather View 32 v70,2013-04-09 15:44:00,
2013-04-09 11:49:00,41.0,41.0,29.94,South,180,1.0,4.0,100,0.00,,,0.41,Weather View 32 v70,2013-04-09 15:49:00,
2013-04-09 12:00:00,42.0,42.0,29.94,SSE,158,4.0,5.0,100,0.00,,,0.41,Weather View 32 v70,2013-04-09 16:00:00,
2013-04-09 12:05:00,42.0,42.0,29.94,SSE,158,3.0,5.0,100,0.00,,,0.41,Weather View 32 v70,2013-04-09 16:05:00,
2013-04-09 12:14:00,42.0,42.0,29.93,SE,135,2.0,6.0,100,0.00,,,0.41,Weather View 32 v70,2013-04-09 16:14:00,
2013-04-09 12:19:00,42.0,42.0,29.94,SSE,158,3.0,6.0,100,0.00,,,0.41,Weather View 32 v70,2013-04-09 16:19:00,
2013-04-09 12:25:00,42.0,42.0,29.94,West,270,2.0,6.0,100,0.00,,,0.41,Weather View 32 v70,2013-04-09 16:25:00,
2013-04-09 12:30:00,42.0,42.0,29.93,SSW,202,1.0,6.0,100,0.00,,,0.41,Weather View 32 v70,2013-04-09 16:30:00,
2013-04-09 12:39:00,42.0,42.0,29.93,SE,135,1.0,6.0,100,0.00,,,0.41,Weather View 32 v70,2013-04-09 16:39:00,
2013-04-09 12:45:00,42.0,42.0,29.93,WSW,248,1.0,6.0,100,0.00,,,0.41,Weather View 32 v70,2013-04-09 16:45:00,
2013-04-09 12:54:00,42.0,42.0,29.94,South,180,1.0,6.0,100,0.00,,,0.41,Weather View 32 v70,2013-04-09 16:54:00,
2013-04-09 13:00:00,42.0,42.0,29.95,South,180,2.0,6.0,100,0.00,,,0.41,Weather View 32 v70,2013-04-09 17:00:00,
2013-04-09 13:09:00,42.0,42.0,29.95,SSE,158,1.0,6.0,100,0.00,,,0.41,Weather View 32 v70,2013-04-09 17:09:00,
2013-04-09 13:14:00,41.0,41.0,29.96,SSE,158,1.0,6.0,100,0.00,,,0.41,Weather View 32 v70,2013-04-09 17:14:00,
2013-04-09 13:25:00,40.0,40.0,29.95,SE,135,0.0,6.0,100,0.00,,,0.41,Weather View 32 v70,2013-04-09 17:25:00,
2013-04-09 13:30:00,40.0,40.0,29.95,SE,135,1.0,4.0,100,0.00,,,0.41,Weather View 32 v70,2013-04-09 17:30:00,
2013-04-09 13:39:00,39.0,39.0,29.96,SE,135,1.0,4.0,100,0.00,,,0.41,Weather View 32 v70,2013-04-09 17:39:00,
2013-04-09 13:44:00,39.0,39.0,29.96,SSE,158,2.0,4.0,100,0.00,,,0.41,Weather View 32 v70,2013-04-09 17:44:00,
2013-04-09 13:49:00,40.0,40.0,29.96,SW,225,1.0,4.0,100,0.00,,,0.41,Weather View 32 v70,2013-04-09 17:49:00,
2013-04-09 13:59:00,40.0,40.0,29.96,SSE,158,3.0,4.0,100,0.00,,,0.41,Weather View 32 v70,2013-04-09 17:59:00,
2013-04-09 14:10:00,42.0,42.0,29.96,WSW,248,1.0,4.0,100,0.00,,,0.41,Weather View 32 v70,2013-04-09 18:10:00,
2013-04-09 14:19:00,43.0,43.0,29.95,SE,135,2.0,4.0,100,0.00,,,0.41,Weather View 32 v70,2013-04-09 18:19:00,
2013-04-09 14:24:00,45.0,45.0,29.95,SW,225,2.0,5.0,100,0.00,,,0.41,Weather View 32 v70,2013-04-09 18:24:00,
2013-04-09 14:30:00,45.0,45.0,29.95,SE,135,3.0,5.0,100,0.00,,,0.41,Weather View 32 v70,2013-04-09 18:30:00,
2013-04-09 14:35:00,46.0,46.0,29.95,WSW,248,2.0,5.0,100,0.00,,,0.41,Weather View 32 v70,2013-04-09 18:35:00,
2013-04-09 14:45:00,47.0,47.0,29.95,SW,225,3.0,9.0,100,0.00,,,0.41,Weather View 32 v70,2013-04-09 18:45:00,
2013-04-09 14:50:00,48.0,48.0,29.95,South,180,4.0,9.0,100,0.00,,,0.41,Weather View 32 v70,2013-04-09 18:50:00,
2013-04-09 14:59:00,51.0,50.7,29.95,WNW,292,1.0,11.0,99,0.00,,,0.41,Weather View 32 v70,2013-04-09 18:59:00,
2013-04-09 15:10:00,52.0,49.2,29.95,West,270,6.0,11.0,90,0.00,,,0.41,Weather View 32 v70,2013-04-09 19:10:00,
2013-04-09 15:19:00,52.0,47.3,29.95,WSW,248,2.0,11.0,84,0.00,,,0.41,Weather View 32 v70,2013-04-09 19:19:00,
2013-04-09 15:29:00,52.0,45.0,29.94,SE,135,3.0,13.0,77,0.00,,,0.41,Weather View 32 v70,2013-04-09 19:29:00,
2013-04-09 15:34:00,53.0,46.3,29.95,SW,225,2.0,13.0,78,0.00,,,0.41,Weather View 32 v70,2013-04-09 19:34:00,
2013-04-09 15:40:00,53.0,43.8,29.95,SE,135,3.0,13.0,71,0.00,,,0.41,Weather View 32 v70,2013-04-09 19:40:00,
2013-04-09 15:49:00,54.0,44.0,29.96,SW,225,3.0,14.0,69,0.00,,,0.41,Weather View 32 v70,2013-04-09 19:49:00,
2013-04-09 15:55:00,54.0,43.3,29.96,SSW,202,3.0,14.0,67,0.00,,,0.41,Weather View 32 v70,2013-04-09 19:55:00,
2013-04-09 16:04:00,54.0,42.9,29.96,South,180,8.0,14.0,66,0.00,,,0.41,Weather View 32 v70,2013-04-09 20:04:00,
2013-04-09 16:09:00,54.0,43.3,29.97,SSE,158,6.0,14.0,67,0.00,,,0.41,Weather View 32 v70,2013-04-09 20:09:00,
2013-04-09 16:20:00,53.0,41.1,29.97,West,270,5.0,14.0,64,0.00,,,0.41,Weather View 32 v70,2013-04-09 20:20:00,
2013-04-09 16:29:00,53.0,41.1,29.97,WNW,292,8.0,14.0,64,0.00,,,0.41,Weather View 32 v70,2013-04-09 20:29:00,
2013-04-09 16:34:00,54.0,42.1,29.97,SW,225,11.0,14.0,64,0.00,,,0.41,Weather View 32 v70,2013-04-09 20:34:00,
2013-04-09 16:45:00,53.0,41.5,29.97,WSW,248,4.0,14.0,65,0.00,,,0.41,Weather View 32 v70,2013-04-09 20:45:00,
2013-04-09 16:51:00,53.0,41.1,29.98,WNW,292,3.0,14.0,64,0.00,,,0.41,Weather View 32 v70,2013-04-09 20:51:00,
2013-04-09 17:00:00,53.0,41.5,29.97,West,270,3.0,14.0,65,0.00,,,0.41,Weather View 32 v70,2013-04-09 21:00:00,
2013-04-09 17:15:00,53.0,41.9,29.97,West,270,2.0,14.0,66,0.00,,,0.41,Weather View 32 v70,2013-04-09 21:15:00,
2013-04-09 17:24:00,52.0,41.0,29.98,SW,225,6.0,14.0,66,0.00,,,0.41,Weather View 32 v70,2013-04-09 21:24:00,
2013-04-09 17:29:00,52.0,41.0,29.99,WSW,248,5.0,14.0,66,0.00,,,0.41,Weather View 32 v70,2013-04-09 21:29:00,
2013-04-09 17:34:00,52.0,40.6,29.98,SE,135,4.0,14.0,65,0.00,,,0.41,Weather View 32 v70,2013-04-09 21:34:00,
2013-04-09 17:45:00,49.0,40.0,30.00,SE,135,5.0,12.0,71,0.00,,,0.41,Weather View 32 v70,2013-04-09 21:45:00,
2013-04-09 17:50:00,49.0,40.0,30.00,WSW,248,3.0,12.0,71,0.00,,,0.41,Weather View 32 v70,2013-04-09 21:50:00,
2013-04-09 18:00:00,50.0,41.0,30.01,South,180,3.0,12.0,71,0.00,,,0.41,Weather View 32 v70,2013-04-09 22:00:00,
2013-04-09 18:09:00,50.0,40.2,30.01,West,270,3.0,13.0,69,0.00,,,0.41,Weather View 32 v70,2013-04-09 22:09:00,
2013-04-09 18:20:00,50.0,40.6,30.01,South,180,3.0,13.0,70,0.00,,,0.41,Weather View 32 v70,2013-04-09 22:20:00,
2013-04-09 18:29:00,49.0,40.0,30.01,South,180,1.0,13.0,71,0.00,,,0.41,Weather View 32 v70,2013-04-09 22:29:00,
2013-04-09 18:34:00,48.0,39.0,30.01,SSE,158,1.0,13.0,71,0.00,,,0.41,Weather View 32 v70,2013-04-09 22:34:00,
2013-04-09 18:45:00,45.0,37.9,30.01,SSE,158,5.0,13.0,76,0.00,,,0.41,Weather View 32 v70,2013-04-09 22:45:00,
2013-04-09 18:52:00,45.0,38.2,30.01,SSW,202,1.0,13.0,77,0.00,,,0.41,Weather View 32 v70,2013-04-09 22:52:00,
2013-04-09 19:00:00,44.0,38.2,30.01,WSW,248,0.0,13.0,80,0.00,,,0.41,Weather View 32 v70,2013-04-09 23:00:00,
2013-04-09 19:09:00,44.0,39.8,30.02,WNW,292,0.0,8.0,85,0.00,,,0.41,Weather View 32 v70,2013-04-09 23:09:00,
2013-04-09 19:19:00,44.0,40.4,30.01,WSW,248,1.0,8.0,87,0.00,,,0.41,Weather View 32 v70,2013-04-09 23:19:00,
2013-04-09 19:30:00,43.0,40.0,30.02,WNW,292,1.0,6.0,89,0.00,,,0.41,Weather View 32 v70,2013-04-09 23:30:00,
2013-04-09 19:35:00,43.0,40.3,30.01,WNW,292,1.0,6.0,90,0.00,,,0.41,Weather View 32 v70,2013-04-09 23:35:00,
2013-04-09 19:44:00,42.0,39.8,30.02,West,270,2.0,5.0,92,0.00,,,0.41,Weather View 32 v70,2013-04-09 23:44:00,
2013-04-09 19:49:00,43.0,41.1,30.02,WNW,292,0.0,3.0,93,0.00,,,0.41,Weather View 32 v70,2013-04-09 23:49:00,
2013-04-09 19:54:00,43.0,41.4,30.02,WSW,248,1.0,3.0,94,0.00,,,0.41,Weather View 32 v70,2013-04-09 23:54:00,
2013-04-09 20:04:00,43.0,41.7,30.03,West,270,1.0,3.0,95,0.00,,,0.41,Weather View 32 v70,2013-04-10 00:04:00,
2013-04-09 20:10:00,42.0,40.7,30.02,SSE,158,1.0,3.0,95,0.00,,,0.41,Weather View 32 v70,2013-04-10 00:10:00,
2013-04-09 20:20:00,42.0,40.7,30.03,WSW,248,0.0,3.0,95,0.00,,,0.41,Weather View 32 v70,2013-04-10 00:20:00,
2013-04-09 20:29:00,42.0,40.9,30.02,SW,225,0.0,3.0,96,0.00,,,0.41,Weather View 32 v70,2013-04-10 00:29:00,
2013-04-09 20:35:00,42.0,41.2,30.03,WSW,248,1.0,3.0,97,0.00,,,0.41,Weather View 32 v70,2013-04-10 00:35:00,
2013-04-09 20:40:00,42.0,41.5,30.03,WNW,292,1.0,3.0,98,0.00,,,0.41,Weather View 32 v70,2013-04-10 00:40:00,
2013-04-09 20:49:00,42.0,41.5,30.04,WNW,292,1.0,3.0,98,0.00,,,0.41,Weather View 32 v70,2013-04-10 00:49:00,
2013-04-09 20:55:00,42.0,41.5,30.04,WNW,292,1.0,3.0,98,0.00,,,0.41,Weather View 32 v70,2013-04-10 00:55:00,
2013-04-09 21:04:00,44.0,42.7,30.05,WSW,248,1.0,5.0,95,0.00,,,0.41,Weather View 32 v70,2013-04-10 01:04:00,
2013-04-09 21:10:00,45.0,42.8,30.04,WNW,292,1.0,5.0,92,0.00,,,0.41,Weather View 32 v70,2013-04-10 01:10:00,
2013-04-09 21:19:00,45.0,41.1,30.04,WNW,292,1.0,5.0,86,0.00,,,0.41,Weather View 32 v70,2013-04-10 01:19:00,
2013-04-09 21:24:00,46.0,41.7,30.04,WNW,292,2.0,5.0,85,0.00,,,0.41,Weather View 32 v70,2013-04-10 01:24:00,
2013-04-09 21:34:00,46.0,40.2,30.05,WNW,292,1.0,5.0,80,0.00,,,0.41,Weather View 32 v70,2013-04-10 01:34:00,
2013-04-09 21:40:00,47.0,40.5,30.04,West,270,1.0,5.0,78,0.00,,,0.41,Weather View 32 v70,2013-04-10 01:40:00,
2013-04-09 21:49:00,46.0,38.8,30.04,WNW,292,4.0,6.0,76,0.00,,,0.41,Weather View 32 v70,2013-04-10 01:49:00,
2013-04-09 21:55:00,45.0,38.2,30.04,SE,135,1.0,6.0,77,0.00,,,0.41,Weather View 32 v70,2013-04-10 01:55:00,
2013-04-09 22:04:00,42.0,36.9,30.03,South,180,2.0,6.0,82,0.00,,,0.41,Weather View 32 v70,2013-04-10 02:04:00,
2013-04-09 22:14:00,42.0,38.1,30.04,South,180,1.0,6.0,86,0.00,,,0.41,Weather View 32 v70,2013-04-10 02:14:00,
2013-04-09 22:20:00,42.0,38.4,30.04,South,180,1.0,6.0,87,0.00,,,0.41,Weather View 32 v70,2013-04-10 02:20:00,
2013-04-09 22:29:00,41.0,37.7,30.04,SE,135,1.0,6.0,88,0.00,,,0.41,Weather View 32 v70,2013-04-10 02:29:00,
2013-04-09 22:34:00,41.0,37.7,30.04,SSE,158,1.0,6.0,88,0.00,,,0.41,Weather View 32 v70,2013-04-10 02:34:00,
2013-04-09 22:45:00,40.0,37.0,30.04,WNW,292,1.0,5.0,89,0.00,,,0.41,Weather View 32 v70,2013-04-10 02:45:00,
2013-04-09 22:55:00,40.0,37.6,30.04,SW,225,0.0,5.0,91,0.00,,,0.41,Weather View 32 v70,2013-04-10 02:55:00,
2013-04-09 23:04:00,41.0,38.9,30.02,SE,135,0.0,4.0,92,0.00,,,0.41,Weather View 32 v70,2013-04-10 03:04:00,
2013-04-09 23:15:00,40.0,37.6,30.02,West,270,1.0,3.0,91,0.00,,,0.41,Weather View 32 v70,2013-04-10 03:15:00,
2013-04-09 23:24:00,40.0,38.1,30.02,WNW,292,1.0,3.0,93,0.00,,,0.41,Weather View 32 v70,2013-04-10 03:24:00,
2013-04-09 23:29:00,40.0,38.4,30.01,WSW,248,0.0,3.0,94,0.00,,,0.41,Weather View 32 v70,2013-04-10 03:29:00,
2013-04-09 23:41:00,40.0,38.7,30.00,West,270,0.0,3.0,95,0.00,,,0.41,Weather View 32 v70,2013-04-10 03:41:00,
2013-04-09 23:49:00,40.0,38.7,29.99,SSE,158,0.0,3.0,95,0.00,,,0.41,Weather View 32 v70,2013-04-10 03:49:00,
2013-04-09 23:59:00,40.0,39.2,29.99,SSW,202,0.0,3.0,97,0.00,,,0.00,Weather View 32 v70,2013-04-10 03:59:00,